Wind_Speed
15 16 15 14 13 8 7 6 2 2 4 2 2 4 8 9 9 9 10 9 8 9 9 9 8 8 7 8 10 12 9 9 7 3 4 7 12 16 18 18 16 14 15 16 15 17 17 18 19 20 21 22 22 22 22 23 24 23 21 19 19 19 18 18 18 18 17 16 15 15 15 14 14 13 13 13 14 14 14 14 14 14 14 13 13 12 12 11 11 12 12 12 12 12 12 11 11
16 16 14 12 11 6 2 3 2 3 4 5 3 4 8 8 9 8 10 11 9 9 10 10 11 12 12 11 9 10 11 12 13 9 9 16 17 18 21 19 17 16 15 16 16 17 17 19 20 20 21 21 22 21 21 20 21 21 20 20 19 18 18 18 18 17 16 15 15 14 14 13 13 12 12 13 13 13 13 13 13 13 13 12 12 11 11 11 11 12 12 12 11 11 11 10 10
16 14 13 9 9 6 2 2 4 3 3 6 3 8 9 6 10 10 12 13 11 11 9 10 11 9 10 11 8 9 11 12 16 12 11 18 16 17 22 20 19 17 16 17 17 18 18 19 21 20 20 20 20 19 19 18 19 19 19 19 19 18 18 17 17 16 16 15 14 14 13 13 12 12 12 12 12 12 12 12 12 12 12 11 11 11 10 11 11 11 11 11 11 10 10 9 10
15 12 11 7 4 5 3 4 4 2 5 6 4 9 9 7 11 12 13 13 10 10 8 10 9 7 8 12 10 10 12 11 15 13 10 15 16 19 22 20 21 18 17 17 17 18 19 20 20 20 19 19 19 18 18 18 19 20 19 19 19 19 17 16 16 16 15 15 14 13 12 12 11 11 11 11 11 11 11 11 11 11 11 10 10 10 10 10 11 11 11 10 10 9 9 8 9
12 10 10 5 2 4 4 4 0 4 6 5 5 7 10 10 12 12 12 11 9 8 8 8 7 9 12 10 6 8 10 11 14 15 13 16 19 23 22 21 21 19 18 18 18 18 19 20 19 20 19 19 18 18 18 18 20 21 20 20 19 18 16 16 16 15 14 14 13 12 11 11 11 11 10 10 10 10 10 10 10 10 10 9 9 10 10 10 10 10 10 10 9 9 8 8 8
13 10 9 7 4 5 6 2 4 6 6 6 6 7 9 11 11 11 11 10 8 8 6 7 10 12 11 10 9 8 8 10 12 15 17 19 20 21 21 22 20 18 18 18 20 20 21 20 19 20 19 19 18 18 18 19 21 21 20 20 19 18 16 16 16 15 14 13 12 12 11 11 10 10 10 10 9 10 9 9 10 9 9 9 9 9 9 9 9 9 9 9 8 8 8 8 8
10 6 6 7 5 5 5 3 6 6 7 8 8 8 9 11 10 11 10 9 8 7 6 8 11 11 9 9 10 11 10 11 12 16 19 20 21 20 19 23 20 17 18 17 19 21 23 22 20 20 19 20 19 19 19 20 21 20 20 19 18 17 16 16 15 14 13 12 12 11 10 10 10 9 9 9 9 9 9 9 9 8 8 8 8 8 8 8 8 8 9 9 8 8 8 8 7
8 3 2 4 5 6 2 6 7 6 8 8 9 8 9 10 8 9 8 7 7 7 8 9 10 11 11 10 9 10 12 14 17 20 21 21 21 18 17 21 20 17 17 17 19 20 22 22 20 20 20 21 21 20 20 20 20 20 20 18 16 16 15 15 14 13 12 12 11 11 10 10 9 9 8 8 8 8 8 8 8 8 7 7 7 7 7 7 7 8 8 7 7 8 8 8 8
7 4 3 4 6 3 3 6 8 8 9 9 9 8 7 8 6 7 7 7 7 8 10 9 10 11 11 12 11 9 12 17 20 21 21 21 19 17 17 19 19 18 19 19 19 20 21 22 20 20 20 20 20 20 20 20 19 19 18 16 16 15 14 13 12 12 11 11 10 10 10 9 9 8 8 8 8 7 7 7 7 7 6 6 6 6 7 7 7 7 6 6 7 7 7 7 8
4 4 5 5 5 1 5 5 7 8 10 9 9 8 7 7 5 6 7 8 8 7 10 8 10 13 12 13 10 9 13 18 19 20 20 19 18 18 17 17 19 19 20 21 20 19 20 21 20 19 19 19 19 19 19 18 18 18 17 16 15 14 13 12 12 12 11 10 10 10 9 9 8 7 7 7 7 7 7 6 6 6 5 5 5 6 6 5 5 5 6 6 6 6 7 7 7
3 2 7 5 1 3 4 5 7 8 9 9 9 7 7 7 6 6 7 9 7 8 9 7 12 15 14 11 8 11 17 18 18 19 19 18 18 18 18 18 18 18 20 21 20 19 20 20 20 19 18 18 18 18 18 17 16 17 16 15 14 14 13 12 12 11 11 10 10 9 9 8 7 7 7 7 7 6 6 5 5 5 4 4 4 5 4 4 4 5 6 6 7 7 7 7 6
3 2 8 4 3 3 4 5 8 7 9 9 9 7 6 7 7 7 8 9 8 8 9 6 12 14 12 11 8 14 19 18 18 19 19 18 18 17 17 18 18 18 19 20 19 19 19 20 20 19 17 17 17 17 17 16 16 16 15 13 13 13 12 12 11 11 10 10 10 9 8 8 7 7 7 7 7 6 6 5 4 4 3 3 3 3 3 4 5 5 6 7 8 7 7 6 5
4 3 6 2 2 2 4 4 6 6 7 8 8 7 5 5 6 8 7 8 7 8 9 7 12 12 11 11 9 14 17 18 19 19 19 18 18 17 17 18 18 19 19 20 20 20 19 19 19 18 17 17 17 17 16 16 15 15 14 13 13 13 12 12 11 11 10 10 9 9 8 8 7 7 7 6 6 6 5 4 4 3 2 2 2 3 3 4 5 6 7 8 8 7 7 5 5
4 4 6 3 1 1 4 2 4 4 6 8 8 6 5 4 6 8 8 8 7 8 9 8 11 11 11 11 9 11 14 19 20 19 18 18 18 18 18 18 18 18 19 21 20 20 19 18 19 19 19 18 17 17 16 15 15 14 14 13 13 13 12 12 11 11 10 10 9 8 8 8 7 7 6 6 5 5 3 3 2 2 1 2 2 3 4 4 5 6 7 8 8 7 5 5 6
6 3 5 4 1 2 3 2 4 4 6 8 8 6 5 6 5 7 7 7 8 9 8 9 9 8 11 12 10 12 18 22 21 20 19 18 18 19 19 18 18 17 18 21 20 19 18 18 18 19 19 18 17 17 16 16 15 14 14 14 13 13 12 12 11 11 10 10 9 8 8 8 7 7 6 5 4 3 3 2 1 1 1 2 3 4 5 5 6 6 7 7 7 6 5 5 6
6 2 3 3 2 2 3 2 4 4 6 8 8 7 7 7 5 5 5 5 9 9 7 8 5 3 10 12 13 19 23 24 21 21 20 19 18 18 19 17 17 17 17 19 19 18 17 18 19 18 19 18 17 17 17 16 16 15 14 13 13 13 12 12 11 11 10 10 9 8 8 7 7 6 5 5 4 3 4 3 4 4 3 4 4 5 6 6 7 7 6 6 6 5 4 5 6
5 5 3 2 3 1 4 3 3 4 8 9 8 8 8 8 5 6 6 6 11 9 7 8 5 3 8 14 20 25 26 24 22 22 21 19 18 18 18 17 16 16 16 16 18 18 18 18 18 18 18 17 16 17 17 16 16 15 14 13 13 12 12 11 11 10 10 9 9 8 8 8 8 7 6 5 4 4 4 4 5 5 5 5 6 6 7 7 7 7 6 5 5 4 4 4 6
6 6 1 2 4 3 4 3 6 6 8 8 8 7 8 9 6 7 6 8 10 8 9 9 6 5 10 19 26 27 25 24 23 22 21 19 18 17 17 17 16 16 16 14 15 17 17 18 17 17 17 17 17 16 16 16 16 15 14 14 13 13 12 11 11 10 10 9 9 8 8 7 8 7 6 6 5 5 4 5 5 5 6 6 6 6 7 7 7 6 5 6 5 5 4 3 6
7 5 1 4 5 5 3 4 7 5 7 9 8 6 7 9 8 7 7 9 10 9 11 10 9 10 14 22 27 27 26 24 23 22 21 19 18 18 17 17 16 17 17 15 15 15 16 16 16 17 18 18 17 15 15 16 16 16 15 14 14 13 13 12 11 11 10 10 9 9 8 7 6 6 6 7 6 6 6 5 4 5 5 5 6 6 6 6 6 6 6 7 5 4 4 3 4
7 5 1 7 10 3 3 3 5 4 6 9 8 5 6 9 8 7 7 10 10 9 11 11 12 14 16 21 24 26 25 23 23 22 21 19 18 18 17 17 17 17 18 17 17 16 16 17 17 17 18 18 16 15 15 15 16 15 14 14 13 13 13 12 12 11 10 10 9 8 7 6 6 6 6 7 6 6 6 4 4 4 3 4 5 5 5 5 5 5 5 7 5 3 4 4 4
5 5 5 6 13 1 5 2 4 5 4 7 8 6 7 9 7 6 7 9 8 9 11 11 13 16 18 20 22 25 24 23 22 21 21 19 18 18 17 17 17 17 18 18 18 18 18 18 18 17 18 17 15 15 15 14 15 14 13 13 12 12 12 11 11 10 10 9 9 8 7 6 6 6 6 5 5 5 5 5 5 4 2 3 4 4 5 4 5 6 3 5 6 5 5 5 6
5 6 6 11 12 1 4 2 3 4 3 7 7 6 7 8 8 6 6 5 5 9 11 12 14 16 19 20 21 22 22 22 22 21 21 20 19 17 17 17 17 17 17 17 18 18 18 17 17 17 17 16 14 14 14 14 14 13 12 12 12 11 11 11 10 10 9 9 9 7 7 6 6 6 6 5 5 4 4 4 4 2 3 4 4 4 5 4 5 6 4 4 6 6 6 7 7
7 7 5 8 7 2 1 1 3 4 3 6 6 6 8 8 8 7 6 2 2 11 13 12 15 16 20 20 20 20 20 20 21 22 22 22 21 18 18 18 17 17 16 17 18 17 18 17 17 16 16 16 15 13 13 13 13 12 11 11 11 11 10 10 10 9 9 9 8 7 7 6 6 6 5 5 4 4 4 4 3 3 3 3 3 3 5 6 4 5 5 5 6 6 7 8 7
9 7 6 6 6 5 3 3 4 5 4 5 7 6 8 8 7 8 8 4 3 9 13 13 16 17 20 20 19 20 20 20 20 22 22 22 21 20 19 19 17 17 16 16 17 17 18 18 18 17 16 16 15 14 13 12 12 11 10 10 10 10 10 9 9 8 8 8 8 7 6 6 6 6 5 5 4 4 4 3 4 5 3 3 3 3 6 6 5 5 5 5 6 7 8 8 8
10 10 8 6 6 7 6 6 5 6 5 4 8 8 8 7 6 8 9 9 5 6 12 14 16 17 18 19 20 19 19 19 20 22 21 20 20 20 19 18 18 17 16 16 16 17 18 18 18 17 16 16 15 14 13 11 11 11 10 10 10 9 9 9 8 8 8 8 8 8 7 6 6 5 5 4 3 3 3 3 6 6 3 4 4 5 7 6 5 7 6 5 6 8 8 9 8
10 11 10 8 7 8 8 8 8 6 5 6 9 9 9 7 6 8 9 11 9 8 12 14 15 18 17 17 18 18 18 19 19 21 20 20 20 20 18 18 18 18 17 16 16 16 17 18 18 18 17 16 15 14 13 12 11 11 10 10 9 9 9 8 8 8 8 8 8 9 8 6 6 5 4 3 1 2 3 4 7 7 5 5 5 5 6 6 6 7 7 6 7 8 8 7 7
6 6 8 9 8 8 7 7 8 6 6 9 10 9 9 9 6 6 10 11 10 10 13 14 15 17 17 16 17 16 17 18 19 20 19 19 20 20 19 18 18 18 18 18 17 16 17 18 18 18 17 16 15 14 13 12 11 11 10 10 9 9 9 8 8 8 8 8 7 9 8 7 6 5 3 2 2 3 4 5 6 6 5 4 5 5 6 6 7 8 8 7 7 7 6 5 6
8 7 8 9 10 9 9 9 8 7 8 10 11 10 10 11 7 6 13 13 11 12 13 15 14 15 16 16 16 14 15 18 20 19 19 19 19 19 19 18 18 18 18 19 18 16 17 19 19 18 18 16 16 14 13 12 11 11 10 10 10 9 9 9 9 9 8 8 6 7 8 7 6 5 2 3 4 4 6 7 6 5 5 5 6 7 6 7 8 8 8 7 5 5 5 6 6
10 10 10 11 12 10 11 9 7 8 9 11 11 10 11 12 8 6 15 14 12 14 14 15 14 14 15 15 15 13 14 18 19 19 19 19 19 20 20 19 19 18 18 18 18 18 18 18 18 18 18 17 16 15 13 12 12 11 11 11 10 10 9 10 10 9 9 8 7 7 8 7 7 6 4 5 6 5 5 6 6 6 7 6 6 7 7 8 10 9 8 6 4 5 7 7 7
11 11 11 9 10 9 10 6 7 9 10 12 11 8 8 11 10 8 14 14 14 15 14 14 14 13 14 13 13 13 14 16 18 18 20 20 20 21 21 20 20 19 18 18 19 18 17 17 17 18 18 18 16 15 13 12 12 11 11 11 11 10 10 11 10 9 9 9 8 9 9 8 8 7 6 6 6 6 6 6 7 7 7 5 5 8 8 8 10 8 7 6 5 7 7 6 7
10 11 10 7 8 6 8 7 9 10 9 13 12 6 7 11 13 12 14 15 15 14 14 15 14 13 13 13 14 14 15 16 18 20 21 21 20 20 22 22 21 20 19 19 20 19 17 16 16 17 18 18 17 16 14 13 12 12 12 11 11 11 11 11 11 10 10 9 9 9 9 9 9 8 7 7 7 7 7 8 8 6 5 5 7 9 8 8 9 6 5 6 6 7 6 6 6
9 10 9 8 8 5 10 10 11 11 8 13 12 5 6 11 14 14 14 14 14 14 14 15 14 15 14 13 14 14 14 16 19 21 21 22 21 20 21 22 22 21 19 19 20 20 18 16 16 16 18 19 18 17 16 14 13 12 12 11 11 11 11 11 11 11 10 10 10 9 10 10 9 9 9 8 8 7 8 8 7 5 6 6 7 7 7 7 6 4 4 6 6 6 6 5 5
10 10 9 9 9 7 8 10 12 13 10 13 13 7 4 8 12 14 15 15 15 13 14 15 15 15 15 13 13 13 14 16 18 20 22 22 21 20 21 22 22 21 20 18 19 20 19 18 17 16 17 19 18 17 16 15 13 13 12 12 11 11 12 12 11 11 11 11 10 9 10 11 9 10 9 8 8 7 8 8 7 6 5 5 6 6 6 5 4 4 4 4 5 4 5 5 5
9 10 9 9 11 10 8 9 12 13 12 12 14 10 5 7 12 13 14 16 15 13 13 15 14 14 14 13 14 14 14 15 16 19 23 23 22 21 21 21 22 22 21 19 19 20 20 19 18 17 17 18 18 17 17 16 14 13 12 12 12 12 12 12 11 11 11 11 10 9 9 10 9 9 9 9 8 8 8 9 9 8 5 4 5 5 4 4 4 4 3 3 4 4 5 6 6
11 11 9 9 13 12 10 11 12 14 12 12 14 11 9 8 13 13 14 15 15 13 12 13 14 14 14 14 14 14 15 16 16 20 24 24 22 22 21 21 22 22 22 21 20 20 20 20 19 18 17 17 18 17 17 16 15 14 13 13 13 13 13 12 12 12 11 11 10 9 9 9 9 9 9 9 9 8 8 8 7 5 4 4 3 4 4 4 3 3 4 3 3 4 4 5 6
14 13 11 10 11 11 11 10 13 15 13 12 14 12 12 10 12 12 13 13 13 13 12 12 12 13 14 14 14 14 16 16 17 22 25 24 23 23 22 21 22 22 22 22 21 21 21 20 19 19 18 18 17 17 17 17 16 15 14 14 14 14 13 13 13 12 11 10 9 9 10 9 9 10 10 10 8 7 8 7 4 3 3 4 3 4 4 3 3 3 4 3 3 4 4 4 5
17 14 12 13 13 11 13 12 15 15 13 12 14 13 14 12 12 13 12 13 14 13 13 12 12 13 13 14 15 15 16 15 18 23 25 25 24 23 22 21 22 23 22 22 23 22 22 21 20 20 19 19 18 18 18 17 17 16 15 16 15 15 14 13 13 13 12 10 9 9 10 10 10 11 10 9 8 7 7 5 3 3 4 4 3 3 2 3 3 3 4 3 3 4 4 4 4
18 15 12 12 12 11 13 12 15 16 12 11 13 14 15 14 13 14 13 14 14 14 14 13 14 14 13 15 16 16 14 14 16 20 23 26 25 25 24 22 23 24 24 24 24 23 22 22 21 20 19 20 20 19 18 18 18 17 16 16 15 14 14 13 13 12 12 11 10 9 10 10 10 11 10 9 9 8 7 5 5 4 4 3 2 2 2 2 4 4 3 3 3 2 3 4 4
17 13 11 10 11 11 11 11 15 14 9 9 13 14 13 14 14 14 15 14 13 13 14 13 14 14 13 14 15 15 15 15 16 18 21 26 27 27 26 24 24 25 24 25 24 24 23 22 22 21 20 20 21 20 19 18 17 17 16 14 14 13 12 12 12 12 12 12 11 11 10 10 11 11 10 9 9 8 7 6 6 5 4 3 2 2 2 3 4 4 3 3 3 3 3 2 2
16 13 11 10 12 12 10 8 12 12 8 8 12 11 10 12 14 14 15 14 13 14 15 14 14 14 15 15 15 15 17 16 17 18 20 23 27 28 27 26 25 25 25 25 25 25 24 24 23 22 21 21 21 21 20 19 17 17 15 14 13 12 11 11 12 12 12 11 11 12 11 11 12 11 9 9 8 8 8 7 6 5 4 3 2 3 3 3 3 2 2 2 2 4 5 2 2
16 17 14 12 14 14 10 8 11 10 10 11 12 9 9 11 14 14 13 15 15 15 15 15 14 15 16 16 16 16 17 17 17 18 19 20 23 27 28 27 26 26 26 26 26 26 24 24 24 23 22 21 20 21 21 19 17 17 16 15 13 12 11 11 12 13 12 12 12 12 12 12 11 10 9 9 9 8 8 8 6 5 4 3 3 3 3 3 2 2 2 2 2 5 6 2 2
16 19 19 17 15 15 14 12 12 9 10 14 14 10 8 11 15 14 12 14 16 15 15 16 15 15 16 16 16 17 17 17 18 18 19 19 22 26 28 28 27 27 27 27 27 26 25 24 24 24 22 21 21 21 22 20 18 18 17 16 15 13 13 13 13 13 12 12 12 12 12 12 10 9 9 9 8 8 9 8 6 5 4 3 3 3 2 2 3 3 3 2 2 3 4 5 1
13 16 20 21 19 16 18 16 12 8 8 12 14 11 8 9 13 15 14 15 17 16 16 17 15 15 16 16 16 17 17 18 18 19 19 20 22 24 26 28 29 27 27 27 26 26 25 24 24 25 23 22 21 21 22 21 19 19 18 17 16 15 14 14 14 13 12 11 11 11 11 10 9 9 9 8 8 8 9 8 6 5 4 4 3 2 3 4 4 3 3 2 1 1 2 4 3
12 15 19 22 21 20 20 16 10 9 8 10 14 13 9 8 10 15 17 17 17 17 17 17 16 17 18 18 18 18 19 18 18 19 20 21 21 23 26 29 29 28 27 27 26 26 26 25 25 25 24 22 22 21 22 22 20 19 19 18 16 16 15 14 13 13 12 11 10 9 9 8 9 8 8 8 8 8 8 7 6 6 4 3 3 3 4 4 3 3 3 2 2 2 1 2 3
14 16 17 18 19 21 21 15 10 10 10 9 14 15 10 8 10 13 16 17 17 17 18 18 17 17 17 18 19 19 20 20 20 20 21 21 22 25 28 29 29 29 27 27 26 26 26 26 25 25 25 23 22 22 22 23 21 20 19 18 17 16 15 14 14 13 12 11 10 9 8 8 8 8 8 8 8 8 8 7 7 6 4 3 3 4 5 4 3 4 4 3 3 3 2 2 2
14 18 18 17 18 19 18 15 11 11 12 11 15 17 11 8 10 12 12 14 15 15 15 16 16 15 14 15 16 17 17 19 19 21 21 21 24 27 28 29 29 29 28 27 27 26 26 26 26 26 26 24 23 23 23 23 23 21 20 19 18 16 15 14 13 12 12 11 10 10 9 8 8 9 9 9 9 9 9 8 7 6 5 4 4 4 4 4 4 5 5 4 4 3 2 2 2
16 17 17 18 16 14 13 13 12 12 12 14 18 20 14 9 10 11 11 12 14 13 12 12 14 15 14 14 14 15 15 16 18 19 20 22 25 27 28 29 29 29 28 27 27 27 26 26 26 27 26 25 24 24 24 24 24 23 21 20 20 18 16 15 14 13 12 11 11 11 11 10 10 9 9 9 10 9 9 9 8 6 5 5 5 5 5 5 6 7 5 4 4 3 2 2 2
16 13 14 15 12 9 10 12 13 13 11 14 18 21 18 12 9 10 12 14 15 13 12 14 16 15 15 15 14 14 16 16 16 17 18 19 21 24 26 28 29 29 29 29 29 28 27 27 27 27 27 26 25 25 25 25 25 24 22 21 21 19 18 16 15 14 13 13 12 12 11 11 10 10 9 9 9 10 10 10 9 7 6 6 6 6 6 5 5 6 5 4 4 3 2 2 2
15 12 13 15 11 9 11 12 12 12 12 14 17 19 17 12 10 12 14 14 14 14 14 15 15 15 17 18 17 15 15 17 18 17 17 18 19 20 23 26 29 30 31 31 31 30 28 28 28 28 28 28 26 26 26 26 25 25 24 22 21 20 19 18 16 15 15 15 14 13 12 11 11 11 11 10 9 11 11 10 9 8 7 7 7 7 7 5 4 4 5 4 4 3 3 3 3
16 14 13 14 11 10 12 12 12 12 13 15 18 17 14 10 11 17 18 15 13 15 16 15 14 14 16 17 17 14 14 15 17 18 18 18 19 19 22 26 29 29 31 32 31 30 29 28 29 29 29 28 27 27 27 27 26 26 24 23 22 21 21 20 18 17 16 16 15 14 13 12 12 12 12 11 10 11 12 11 10 9 9 9 9 8 7 6 5 5 5 5 5 4 4 4 4
15 15 14 14 11 11 12 10 11 11 12 15 18 15 11 9 10 14 17 17 13 11 13 15 15 15 12 10 15 16 14 15 16 18 19 20 21 21 23 27 29 30 32 32 31 30 29 28 29 30 29 29 29 28 27 27 27 26 25 24 23 22 21 20 20 19 18 17 16 16 15 14 13 12 13 13 12 12 13 12 11 10 10 10 10 10 10 8 7 6 5 5 5 5 5 5 5
12 13 14 14 13 12 11 10 12 13 12 13 13 11 10 10 10 9 12 15 16 14 13 16 17 15 9 7 11 15 16 18 19 19 20 21 21 21 25 28 30 31 32 32 31 31 30 29 30 31 30 30 29 29 28 27 27 26 25 25 24 23 22 21 20 20 19 18 17 16 15 15 15 14 14 14 14 14 14 14 13 12 12 13 13 13 13 12 10 9 8 7 7 7 7 7 7
10 13 16 15 15 15 12 12 14 14 13 11 11 12 11 12 12 11 13 14 14 15 16 18 19 15 10 8 10 14 16 18 19 19 19 20 21 22 26 29 30 31 32 32 32 33 33 31 30 31 30 29 29 29 28 27 26 25 25 25 25 24 23 22 21 21 20 19 18 17 16 16 16 15 15 15 16 16 16 15 14 14 14 15 15 16 16 15 14 12 11 9 9 8 8 9 8
11 12 16 15 15 16 12 11 12 13 13 11 13 17 14 12 10 12 18 19 15 15 18 17 17 15 12 11 11 13 16 18 19 19 18 19 21 21 25 29 31 32 32 33 34 33 33 32 30 31 31 30 30 30 28 27 26 25 25 25 25 24 24 23 22 21 21 20 19 18 18 17 17 16 16 16 17 17 17 17 16 15 16 16 16 16 17 16 15 15 13 12 10 9 9 9 9
19 13 13 13 13 15 13 12 12 13 13 10 14 19 15 12 10 10 16 19 18 19 20 18 17 16 13 13 13 12 13 15 16 18 17 18 19 21 25 29 31 33 33 33 34 33 32 32 31 31 31 32 30 28 27 27 26 25 24 25 26 25 24 23 22 22 22 21 21 20 20 19 18 18 17 18 18 18 18 18 18 17 18 19 18 17 17 17 15 15 15 13 13 12 10 10 10
23 18 14 13 12 13 13 11 10 12 13 11 14 16 12 11 11 12 15 17 17 19 20 18 16 18 16 13 13 11 10 12 14 16 17 19 21 23 28 31 32 33 33 33 34 33 32 32 31 31 31 30 30 28 27 27 27 25 24 24 25 25 25 24 23 23 23 23 23 22 21 20 20 19 20 20 20 19 19 19 19 19 19 20 20 19 18 18 16 15 15 15 15 14 13 12 12
17 17 16 13 11 11 12 11 12 13 12 11 12 12 10 10 11 14 15 14 14 17 19 17 17 19 16 11 12 12 12 14 15 16 17 19 20 23 28 31 31 32 32 33 33 33 33 32 31 32 31 30 30 30 29 28 27 26 25 25 25 25 25 25 24 24 24 23 23 23 22 21 21 22 22 23 23 22 22 22 21 20 20 20 20 20 19 19 18 17 17 17 16 15 15 14 13
15 15 16 16 12 11 12 13 15 14 12 11 11 11 10 10 11 13 13 12 13 16 15 14 15 15 12 10 12 14 13 14 15 15 16 17 18 20 24 28 29 30 31 32 33 32 32 32 31 31 31 30 30 30 30 28 27 27 26 26 26 26 26 26 25 25 25 24 23 23 23 23 24 25 25 26 26 25 25 25 23 22 22 21 20 21 20 19 19 19 18 18 18 17 15 15 13
Wind_Direction
173 179 182 196 201 210 206 196 278 204 187 92 67 74 87 92 93 95 101 102 89 92 100 93 74 72 92 101 98 85 53 33 51 87 105 126 139 130 132 132 133 130 125 125 128 130 129 132 133 135 133 132 132 133 135 136 138 139 136 136 134 133 132 131 131 129 128 125 121 116 112 109 106 105 103 100 98 98 98 97 94 92 90 87 84 81 78 74 70 66 64 62 61 59 57 54 51
179 186 185 201 211 217 248 196 266 236 165 85 80 67 74 87 83 78 86 88 84 88 86 89 86 89 103 110 113 90 61 57 78 90 105 128 133 131 136 134 134 133 129 128 130 131 130 132 132 132 131 130 130 129 132 133 136 138 139 140 137 136 135 133 132 130 128 126 122 118 115 111 108 107 104 101 100 100 99 97 95 93 90 87 84 81 77 73 68 63 60 59 58 57 54 51 47
183 188 189 203 220 221 290 229 240 265 90 79 91 77 69 75 84 77 81 86 91 96 89 95 91 89 108 100 87 81 80 81 95 100 115 131 130 132 136 135 135 133 130 129 133 132 131 131 132 132 130 130 129 129 130 132 136 139 143 143 140 138 136 134 132 131 128 125 122 120 117 114 113 111 108 104 102 103 101 98 96 94 91 87 83 81 77 73 69 65 61 57 55 52 51 49 45
192 194 198 202 227 226 242 235 240 353 54 77 81 90 101 95 87 84 86 93 99 103 95 96 80 48 73 84 82 86 94 92 99 106 121 129 126 133 135 135 134 131 130 131 132 132 135 133 130 131 130 133 136 135 134 134 140 144 145 144 142 139 136 136 133 131 129 126 124 122 121 119 117 114 111 107 106 105 103 101 99 96 92 87 83 79 75 73 69 65 60 56 52 48 47 44 41
212 208 212 219 242 248 252 247 158 41 29 66 84 89 106 99 94 96 98 105 109 101 93 106 94 70 70 76 90 94 99 97 99 105 114 123 127 133 136 136 132 129 130 131 133 134 139 136 132 135 135 140 141 139 138 138 140 144 145 143 142 137 136 136 134 134 132 129 128 129 128 125 122 117 112 109 108 107 105 103 99 95 91 86 81 78 74 72 67 63 58 54 49 42 41 39 36
226 217 211 226 256 289 278 283 75 73 23 37 94 92 97 103 104 105 106 106 101 92 90 101 100 98 83 71 75 77 97 106 103 107 115 125 129 133 135 134 130 128 128 130 131 136 143 141 138 140 138 140 139 137 137 137 139 142 143 143 140 136 137 138 137 137 133 132 134 135 133 130 125 119 114 111 110 109 106 102 99 94 88 84 79 76 73 70 66 59 53 47 42 36 34 34 34
240 239 209 221 242 256 262 38 56 71 44 32 79 96 100 106 109 113 116 112 103 96 87 90 101 111 98 85 84 76 86 100 107 113 119 125 129 133 134 129 128 127 126 126 126 134 144 143 142 143 140 139 140 138 136 136 137 139 141 140 138 135 137 139 139 137 134 135 139 140 136 132 127 122 118 114 114 112 109 103 99 94 85 82 77 74 70 68 62 54 48 40 33 30 26 27 29
248 269 237 252 253 222 208 64 61 66 72 57 66 83 98 109 122 121 118 117 114 109 106 106 105 102 95 95 95 86 87 94 106 114 120 124 128 133 131 125 125 127 125 123 124 132 141 142 145 147 144 140 140 139 138 137 137 139 140 138 134 134 137 140 139 138 138 140 144 143 138 136 131 127 123 120 119 115 111 106 101 95 87 82 77 73 68 62 55 49 45 34 29 26 21 20 17
235 237 256 271 265 210 101 79 84 73 79 82 82 89 101 115 127 115 111 107 109 119 120 118 106 102 104 100 97 99 99 104 113 118 123 124 126 129 127 125 125 128 129 127 127 132 138 142 146 148 147 142 140 140 139 140 141 138 135 133 133 136 139 141 142 142 143 145 146 144 143 142 137 133 130 127 122 119 114 107 100 92 87 82 75 70 65 58 51 43 37 29 26 23 21 19 11
239 243 265 258 265 84 87 80 86 79 78 81 92 104 110 120 125 112 108 102 110 116 105 99 105 114 117 107 105 111 113 119 123 123 126 125 128 129 126 127 127 131 132 130 130 133 137 141 146 148 148 144 141 139 138 141 142 137 133 133 136 138 140 143 145 146 148 148 148 148 149 147 144 141 134 131 125 122 117 107 99 91 88 84 71 66 60 52 44 32 26 22 21 16 17 17 11
273 266 271 265 307 56 75 84 89 86 90 91 94 104 111 122 130 116 109 108 113 110 106 111 114 117 116 106 102 115 124 131 129 127 129 128 130 131 128 130 131 131 131 130 130 132 135 140 145 148 148 144 143 139 138 140 139 137 135 139 141 142 144 147 148 149 152 153 155 156 155 155 151 145 138 135 130 125 119 113 105 96 92 82 69 63 52 34 26 19 13 10 9 6 9 13 13
267 262 271 279 56 58 62 81 92 95 103 102 100 104 109 124 134 123 117 115 116 118 124 137 123 121 117 110 110 127 135 136 132 131 132 133 133 132 132 132 132 131 131 131 130 132 136 140 145 148 149 146 143 140 139 140 140 139 140 146 147 148 151 151 153 154 157 160 162 161 159 158 153 149 145 139 134 129 124 115 102 94 88 77 63 48 33 19 10 4 1 359 357 356 1 7 12
262 273 278 321 44 58 68 75 100 112 103 89 92 104 115 128 127 121 118 116 128 129 120 130 133 128 118 115 124 137 141 138 134 135 137 137 136 136 135 133 132 130 131 130 131 135 138 142 146 149 151 150 147 145 144 143 142 143 147 152 151 153 155 154 156 157 159 161 161 161 158 157 156 156 153 148 143 137 131 122 113 101 82 55 33 16 10 5 357 355 356 356 355 353 356 2 2
256 273 290 341 8 78 70 85 115 112 92 92 102 115 131 117 109 122 132 131 126 113 110 134 138 121 116 123 136 147 142 140 140 140 139 137 138 138 137 134 132 133 133 134 134 138 141 144 148 151 153 153 152 152 149 146 146 150 152 154 153 154 155 156 157 157 159 159 159 159 159 160 160 161 162 161 157 149 138 133 138 122 71 12 357 349 346 347 350 351 353 356 356 354 354 358 353
240 266 295 307 261 113 75 54 86 91 95 106 116 125 124 95 110 134 137 134 106 96 117 146 144 125 139 148 151 150 142 144 145 141 139 138 139 138 138 136 135 136 135 136 138 139 143 146 148 152 155 157 157 157 154 152 154 155 156 156 156 156 157 159 159 160 162 161 161 160 162 165 164 169 174 176 175 168 141 128 240 238 271 314 321 322 327 335 341 344 348 353 354 359 353 349 350
252 264 267 289 290 118 105 75 67 90 104 106 122 139 123 106 137 123 91 105 110 121 147 148 139 130 153 154 146 143 143 146 145 141 139 138 138 139 140 140 138 138 135 137 141 142 146 148 151 155 158 160 160 159 156 157 158 158 158 160 160 161 164 165 165 166 167 167 166 166 168 169 171 176 180 187 192 187 167 177 240 254 267 289 301 310 319 323 328 333 338 344 348 356 345 339 351
265 257 261 335 310 71 93 92 74 96 103 109 136 152 127 124 143 101 94 115 122 142 150 133 124 134 147 141 139 141 143 146 146 144 142 141 144 146 146 146 145 140 136 141 143 145 149 150 154 158 159 161 162 160 156 158 162 162 163 165 167 169 171 173 173 173 174 175 176 175 175 174 176 180 181 188 199 202 202 219 240 259 274 284 295 304 311 314 317 321 325 334 341 342 339 331 328
256 252 263 303 284 59 76 78 77 99 113 119 143 155 130 135 140 123 149 135 128 148 138 130 127 123 126 129 137 142 146 149 151 149 147 151 153 154 153 153 154 146 143 148 148 150 151 152 156 160 161 163 163 160 157 161 164 165 168 171 174 176 178 179 178 180 180 182 184 182 181 184 184 183 180 186 202 205 230 263 260 272 286 293 303 308 308 312 315 318 326 332 336 342 351 333 296
245 265 36 267 289 61 64 63 79 101 117 125 139 154 134 137 141 151 175 138 139 154 138 144 135 122 125 132 140 145 150 152 155 155 154 158 158 159 159 158 159 153 151 154 155 157 156 156 160 163 164 165 163 161 161 165 167 169 172 174 176 179 180 181 182 184 185 186 188 187 190 194 189 187 192 197 205 207 229 274 299 294 305 319 324 324 316 323 333 330 344 349 348 349 340 318 295
225 241 67 287 292 59 88 66 99 110 118 137 137 144 138 136 144 168 175 139 153 160 144 157 141 134 140 140 145 149 153 155 159 161 160 162 162 163 162 161 164 161 159 157 159 164 163 163 165 167 168 166 165 165 167 168 170 172 174 177 177 179 182 184 187 187 189 190 188 195 198 194 192 193 206 216 218 221 233 273 307 295 316 335 334 333 306 315 337 319 339 356 345 324 307 301 314
223 225 142 237 272 325 103 103 117 107 122 138 129 147 143 136 147 172 173 148 163 162 154 161 146 146 149 148 151 154 157 158 164 165 163 165 165 167 165 165 166 166 165 160 163 169 169 168 168 170 170 171 171 170 170 171 174 175 176 178 179 180 183 186 189 189 191 192 190 199 199 192 202 201 203 219 225 225 233 256 269 273 313 312 322 325 284 294 326 306 309 343 323 309 312 311 320
255 258 173 198 241 280 103 127 104 103 139 133 134 157 131 136 158 172 179 170 172 154 155 158 149 153 153 155 157 158 162 163 167 169 167 167 169 171 166 167 168 167 170 166 167 172 172 171 170 172 174 176 177 176 174 173 175 176 177 179 181 183 185 186 189 192 193 194 195 201 200 194 205 211 204 211 226 232 242 250 246 272 317 300 302 310 296 303 316 309 309 318 314 315 320 318 317
245 259 232 219 241 275 115 165 141 139 172 149 149 142 123 152 166 165 177 178 107 135 148 151 147 154 157 159 161 162 167 167 170 172 173 171 171 174 168 170 170 168 174 172 171 172 174 176 175 175 177 180 180 182 180 177 179 181 180 180 184 186 187 188 190 195 193 193 199 204 208 203 204 215 209 212 233 244 252 253 252 280 292 274 275 302 312 310 307 315 315 309 312 315 315 313 311
237 255 254 242 241 246 228 233 197 170 209 163 149 147 146 175 164 163 176 141 75 121 139 145 143 154 160 162 166 168 169 171 174 173 176 174 173 176 172 173 171 170 175 174 173 175 178 179 179 180 180 182 183 185 185 184 185 185 183 184 189 188 188 192 193 194 191 193 200 204 214 217 215 217 213 218 229 236 252 259 265 276 278 278 283 291 292 291 302 306 299 301 308 311 310 309 307
235 250 259 240 230 240 228 239 231 191 215 165 161 173 160 171 149 163 175 136 126 138 136 141 145 154 162 166 170 170 170 175 176 174 177 176 177 178 174 172 170 173 176 175 177 178 181 181 181 184 183 185 186 187 188 189 189 189 187 187 191 189 193 197 191 194 195 196 200 203 213 225 230 229 223 223 220 237 264 274 271 273 279 293 291 285 282 285 302 301 297 302 306 305 305 307 308
228 234 247 247 235 238 226 230 237 210 206 182 183 186 161 158 137 158 175 139 143 159 139 143 153 159 165 170 172 171 173 178 177 176 177 176 180 181 178 176 173 176 177 178 182 181 183 184 184 186 186 187 188 189 191 192 191 192 191 190 192 191 198 200 192 199 200 201 204 200 208 222 234 240 238 232 238 277 283 277 278 282 288 289 293 295 289 296 307 303 302 307 306 304 304 310 313
251 241 250 258 256 252 242 238 246 231 205 190 188 192 168 160 159 170 167 142 148 160 147 152 161 163 166 170 172 172 176 181 178 178 178 178 182 183 182 180 177 178 177 179 183 183 184 185 187 188 187 188 190 192 192 194 193 194 195 194 197 197 201 202 201 207 205 208 203 191 201 216 227 243 253 239 245 262 266 271 279 292 299 286 289 295 287 298 306 301 302 305 306 303 306 315 311
274 262 259 255 256 255 248 247 249 237 203 183 183 197 180 166 193 185 153 148 158 164 157 160 167 166 167 171 171 172 179 182 180 181 181 180 183 185 185 183 181 180 179 181 183 184 184 186 188 187 188 188 190 195 193 194 196 196 198 198 202 202 203 206 209 212 210 212 196 180 196 206 214 233 242 230 241 250 261 277 285 293 297 278 279 287 287 293 290 290 290 280 288 305 309 310 301
257 257 259 247 241 236 233 240 238 221 188 170 184 200 184 175 204 179 145 152 166 170 165 164 170 169 170 174 170 172 182 183 183 186 184 183 183 186 188 186 184 183 182 184 184 185 185 186 188 188 189 189 191 196 194 196 198 198 200 202 206 204 206 211 213 214 212 212 202 192 196 198 205 216 217 220 236 248 255 270 272 274 277 274 289 288 280 283 279 288 292 278 307 322 307 308 309
238 243 253 251 242 225 214 220 210 202 166 165 193 208 186 183 204 182 145 158 173 171 170 170 174 173 174 178 172 175 184 185 186 188 187 185 185 187 190 189 186 185 184 185 187 189 187 186 187 188 190 191 193 197 196 198 200 202 205 206 208 207 210 214 216 217 215 216 212 206 201 201 203 204 208 211 227 241 246 254 254 260 266 262 282 278 272 281 281 289 306 313 325 314 308 321 321
231 235 240 240 249 216 180 184 189 181 152 171 194 209 201 186 195 184 153 166 177 171 174 176 177 176 178 180 177 178 183 189 189 189 189 187 187 189 190 190 189 188 185 185 188 189 190 188 188 189 189 192 194 195 198 201 202 206 208 209 210 211 214 217 219 219 216 219 220 213 204 202 204 206 210 212 223 239 248 255 253 255 261 261 274 276 273 285 289 295 319 323 318 316 322 324 318
226 234 231 219 240 214 168 177 187 176 160 186 196 211 203 174 179 177 162 175 178 174 179 179 181 179 179 182 182 183 183 188 191 191 192 189 190 191 191 191 190 191 188 185 187 188 191 190 189 190 188 191 194 194 198 201 202 208 211 212 213 213 216 219 221 224 221 220 224 219 203 195 207 219 223 223 228 242 252 257 259 255 262 273 277 275 273 279 297 323 326 319 320 326 323 316 317
216 227 234 215 221 214 171 174 192 186 172 191 203 224 215 151 161 166 167 183 181 178 183 180 184 181 180 185 186 187 183 186 192 194 193 191 191 191 191 191 190 191 189 186 186 187 191 190 191 193 190 191 194 194 197 200 202 207 212 214 215 215 219 221 222 226 226 223 223 222 206 191 203 225 231 231 234 245 255 260 261 253 256 272 268 264 275 287 312 320 317 322 327 331 320 316 320
209 215 230 224 220 218 185 178 201 197 177 191 206 222 234 152 154 166 174 189 188 185 186 182 186 185 184 188 190 190 186 187 192 195 194 191 192 191 191 191 190 191 189 188 187 187 191 191 192 195 193 192 194 195 197 200 202 206 212 215 216 219 223 225 224 225 225 225 222 222 212 192 199 224 226 229 241 249 257 262 254 245 248 261 259 263 279 298 312 314 321 326 332 336 317 316 321
215 211 214 224 226 223 203 179 191 202 185 191 205 216 233 177 156 172 180 190 195 192 191 187 187 188 187 190 195 193 190 192 192 194 195 192 192 192 190 190 190 191 190 189 188 187 191 193 193 195 196 194 194 196 197 200 203 207 212 216 217 221 224 225 226 226 224 224 219 213 208 194 201 215 218 234 249 246 250 257 248 238 243 237 236 263 277 285 299 313 318 321 327 316 304 314 318
227 222 214 220 227 224 219 190 175 196 199 198 206 209 219 194 163 178 187 190 200 198 196 193 190 191 190 193 199 197 195 196 191 193 195 192 193 192 190 190 190 191 191 189 188 188 190 193 193 194 196 196 193 194 198 201 204 208 212 215 217 219 222 223 225 227 224 222 216 202 197 197 205 210 222 244 248 236 244 251 240 217 223 220 220 257 280 301 312 302 301 314 317 301 299 307 316
236 232 222 223 231 222 217 201 169 186 207 207 210 209 215 209 182 185 194 195 200 201 200 196 194 195 194 196 200 200 200 198 192 192 194 192 192 192 190 190 191 191 192 191 190 190 191 192 194 194 195 196 195 195 198 202 204 207 210 215 217 216 218 221 223 226 226 222 213 198 195 198 205 210 222 234 226 226 236 230 206 191 211 222 225 252 287 314 309 291 291 305 294 300 314 304 330
238 238 230 222 234 231 218 202 170 179 205 207 212 216 216 216 204 193 195 202 204 202 201 199 199 200 197 199 202 202 201 201 194 190 194 194 191 191 191 191 192 192 192 192 191 192 192 193 195 194 193 195 198 198 198 203 206 207 211 215 219 218 217 220 224 228 227 224 211 197 199 200 204 211 213 215 213 215 216 199 184 187 209 220 215 237 279 294 291 280 278 284 272 289 311 305 334
235 239 237 225 226 229 230 211 172 170 198 209 213 221 218 214 216 208 197 200 207 206 204 201 201 204 203 200 202 203 201 201 198 190 192 195 192 192 192 192 194 194 194 193 193 192 192 194 195 195 194 194 198 199 200 204 206 209 212 216 221 222 219 221 227 228 225 223 210 200 204 204 208 212 207 210 213 205 194 186 185 193 209 208 206 240 278 291 290 278 260 266 273 266 253 247 342
232 232 233 231 224 222 228 203 164 164 192 222 223 226 226 214 215 218 205 200 204 207 211 209 204 204 207 205 201 203 203 201 201 195 192 195 194 193 193 193 194 195 195 194 194 193 193 195 195 195 195 195 197 199 201 204 205 208 213 217 222 224 222 223 226 226 223 220 212 205 206 204 208 211 205 204 206 197 187 188 193 197 201 197 206 250 288 292 278 252 239 250 280 276 256 189 128
229 231 230 232 227 227 227 180 161 180 199 219 231 231 231 220 216 217 209 207 207 205 210 215 212 206 206 208 205 202 204 202 201 199 194 195 196 195 194 193 193 195 196 195 194 194 194 194 194 195 196 196 198 199 201 203 204 206 210 215 220 221 222 224 225 225 220 217 216 213 207 204 206 208 206 204 201 195 188 189 194 193 193 193 212 256 288 286 257 229 222 233 270 285 300 332 142
225 226 229 236 234 231 232 199 178 202 209 208 222 232 232 225 224 221 213 214 211 203 207 212 215 213 207 208 207 203 203 202 201 201 197 196 197 196 195 194 195 196 195 195 195 195 195 194 193 194 195 196 198 198 199 201 202 204 206 209 212 212 214 217 220 223 220 219 223 221 216 213 213 211 208 206 199 191 188 188 191 191 191 193 218 265 283 239 231 218 213 235 256 277 318 327 247
225 218 218 233 241 237 240 226 202 215 219 205 215 233 241 228 225 222 220 222 213 203 208 211 212 215 213 210 207 203 202 200 200 201 199 198 197 196 196 196 196 196 195 194 195 196 195 193 192 192 194 196 197 197 197 198 201 204 206 210 211 210 212 215 218 222 220 220 222 221 217 209 206 208 206 201 193 188 187 186 188 189 197 213 224 247 236 215 209 190 204 225 216 219 299 307 299
229 219 212 222 234 239 243 240 226 224 219 210 215 226 239 238 230 221 216 221 217 207 207 209 210 214 214 213 210 204 201 198 197 198 200 200 198 197 197 196 196 197 195 194 195 196 194 193 192 191 193 195 196 196 196 197 200 203 205 209 212 214 217 216 216 218 218 219 219 215 211 197 193 201 201 196 190 186 185 184 186 189 200 220 217 212 213 210 181 163 190 200 188 208 227 295 316
229 228 225 219 222 234 243 243 238 227 222 223 218 219 231 238 238 229 215 214 215 212 210 208 211 214 214 216 216 210 202 198 196 195 198 201 199 198 197 196 197 198 196 194 195 195 194 193 192 191 192 194 195 196 196 197 198 201 203 206 209 213 217 219 217 216 214 215 216 210 203 196 194 197 198 195 189 186 187 186 185 192 209 218 210 209 202 185 167 169 189 192 191 201 202 277 308
230 234 239 232 219 224 235 240 240 229 225 232 221 215 225 235 231 228 218 213 213 213 213 211 209 208 211 219 224 222 210 200 198 195 195 199 199 198 197 196 197 198 197 195 195 195 193 193 192 192 192 193 195 195 195 197 197 199 202 204 207 210 213 218 218 216 212 209 210 205 199 199 199 199 197 193 190 188 189 188 188 202 219 216 208 206 187 173 176 181 191 191 190 202 202 250 292
231 232 238 240 227 222 230 233 239 237 230 232 225 215 215 229 230 221 219 219 216 214 214 217 213 199 199 212 219 229 228 209 200 197 193 196 198 196 196 196 196 196 197 196 196 196 195 193 193 193 193 193 195 195 196 198 198 200 202 203 206 209 210 214 215 213 210 206 207 206 202 201 202 202 199 195 193 191 189 191 200 212 214 202 198 196 189 189 186 175 180 192 191 208 220 236 281
227 226 231 237 231 229 234 226 228 238 237 233 231 223 218 226 230 223 224 218 212 211 213 220 216 195 195 207 203 214 230 220 206 201 192 191 194 195 195 195 194 195 196 197 196 196 196 195 194 194 194 194 195 196 197 199 201 201 203 204 205 208 210 213 214 211 209 208 208 207 204 202 202 202 202 200 197 194 190 195 207 210 201 194 193 192 193 199 186 164 165 188 193 201 226 235 252
219 220 226 228 220 219 226 223 221 229 235 234 235 234 228 227 230 232 234 222 208 204 210 222 218 199 199 201 191 197 219 218 208 200 193 190 191 193 193 192 192 193 196 197 196 196 196 196 195 194 195 195 195 197 198 200 203 204 204 205 206 208 210 213 215 213 211 210 207 204 202 201 200 200 203 203 201 198 191 192 204 204 196 194 193 191 188 188 183 168 173 189 195 199 215 228 238
211 212 220 222 216 215 218 220 224 227 230 230 236 243 239 232 232 230 229 225 215 202 204 218 224 218 212 195 178 186 211 219 211 200 193 191 190 190 191 190 190 193 195 196 196 195 195 195 195 195 195 195 195 197 199 201 204 205 205 205 205 207 210 212 215 215 214 211 207 206 205 204 201 198 201 202 201 199 191 191 201 200 194 192 189 189 186 180 184 187 188 193 197 201 207 217 230
211 211 220 221 214 220 222 217 223 231 231 225 228 237 239 236 235 223 218 223 227 214 205 215 223 227 227 192 167 176 199 216 215 204 196 193 190 187 188 189 190 192 193 195 195 194 194 194 194 194 194 194 195 197 199 201 204 205 205 205 204 206 208 210 213 216 216 213 210 210 208 206 203 199 199 199 197 196 192 193 199 195 191 191 189 189 187 185 187 189 192 199 204 205 203 208 217
207 209 222 221 211 223 236 232 229 233 238 231 225 229 230 236 242 223 215 220 222 222 219 224 232 229 220 203 180 179 194 208 208 203 197 194 190 187 188 189 189 190 191 193 193 192 193 194 194 194 194 193 194 196 198 201 203 204 204 204 204 205 206 207 211 213 214 213 211 209 206 204 202 201 199 196 194 193 192 192 194 192 191 190 191 191 190 188 187 189 192 198 208 212 210 208 210
198 205 223 221 214 224 240 242 235 235 239 233 230 236 226 227 234 221 223 224 215 221 223 224 237 233 205 205 209 196 199 206 203 198 195 193 190 188 188 189 188 189 189 190 190 191 193 193 193 194 194 194 194 195 197 199 200 201 202 203 203 204 204 206 209 210 210 211 210 207 205 202 201 201 199 195 191 190 192 192 190 191 192 193 196 195 193 190 186 186 191 196 206 216 220 217 213
213 207 216 217 220 227 234 239 233 233 240 232 231 239 231 224 222 208 221 223 207 220 229 225 236 236 206 198 214 211 205 205 199 194 193 192 191 189 189 189 189 189 188 187 187 188 191 192 192 192 193 194 195 195 196 198 198 199 200 200 201 202 203 205 208 208 207 207 206 203 203 201 199 200 199 194 189 188 191 191 190 192 192 195 200 199 197 195 190 187 189 194 203 214 226 229 224
231 229 212 208 219 222 222 231 230 230 237 233 232 238 236 233 223 203 223 223 204 212 227 226 231 235 213 192 198 211 211 207 199 191 192 193 191 191 189 189 190 189 187 186 185 186 189 191 192 193 194 195 195 195 195 196 197 198 198 198 199 200 202 204 206 206 205 204 203 200 200 201 200 199 195 189 188 189 189 190 192 195 194 195 198 199 200 200 195 190 189 191 198 204 216 229 232
228 238 224 211 219 221 220 226 231 234 237 233 234 237 236 237 225 205 218 224 212 214 223 223 228 236 229 198 185 194 208 214 205 193 192 193 192 192 192 191 189 187 185 184 184 186 188 190 191 194 195 195 195 195 195 195 196 197 197 196 196 198 199 201 203 204 204 203 202 199 199 201 200 197 191 187 189 190 189 191 195 197 197 197 196 196 198 200 198 195 193 193 194 197 208 221 230
211 226 227 218 216 221 222 221 222 229 238 239 234 234 233 237 231 211 206 212 218 222 220 213 215 229 232 203 178 180 196 211 208 199 196 193 193 193 193 194 191 186 184 183 185 187 189 191 192 194 195 194 195 195 195 195 195 196 195 193 194 196 197 199 200 201 203 202 201 201 200 199 197 193 189 187 189 190 190 193 197 198 199 200 198 195 196 197 198 197 196 196 193 193 204 215 224
209 211 222 225 220 218 219 223 222 220 230 239 240 241 231 224 233 224 203 201 220 227 218 206 210 223 234 225 197 177 185 203 204 204 203 194 194 195 193 194 192 186 184 184 186 188 189 192 193 194 195 196 196 196 195 194 193 193 193 192 193 194 195 198 199 200 201 200 200 200 197 194 193 192 189 188 189 189 190 192 196 198 198 199 198 196 196 197 198 199 199 200 194 191 201 211 217
Height
761 763 763 765 763 766 766 768 785 781 779 792 776 765 762 749 749 754 759 757 758 757 747 751 750 753 763 769 773 773 777 778 787 800 805 798 792 796 796 797 799 799 802 804 806 807 809 811 812 813 814 815 816 817 818 820 821 822 824 825 826 827 828 829 830 830 831 832 833 834 835 836 837 838 838 838 838 838 838 839 839 839 839 839 839 839 840 840 840 840 840 840 840 840 840 840 840
761 763 762 765 760 766 766 763 789 781 768 791 778 765 761 748 755 760 759 758 759 753 744 748 750 755 759 761 762 769 778 774 776 784 789 790 792 796 796 799 800 801 803 804 807 808 810 811 812 813 814 816 817 818 819 820 822 823 824 825 827 828 829 830 830 831 832 833 834 835 836 837 838 839 839 839 839 839 839 839 839 839 839 839 840 840 841 841 841 841 841 841 841 841 841 841 841
761 761 761 763 757 761 765 768 786 773 764 786 777 764 765 760 762 758 753 754 752 747 747 749 754 756 757 765 768 775 783 775 774 779 784 790 791 794 798 800 801 804 804 805 808 809 811 812 813 814 815 816 818 819 820 821 822 824 825 826 827 828 829 830 831 832 833 834 835 836 837 838 839 840 840 840 840 840 840 840 840 840 840 840 841 841 841 841 841 841 841 841 841 842 841 842 841
758 759 758 757 762 764 770 777 770 760 765 777 775 765 764 763 758 756 751 751 747 746 750 754 762 757 757 775 774 776 782 776 776 780 784 788 790 794 797 800 802 805 806 807 808 810 812 813 814 815 816 818 819 821 822 823 824 825 826 827 828 829 830 831 832 833 834 835 836 837 838 840 840 840 841 840 841 840 840 840 840 841 841 841 841 842 842 842 842 842 842 842 842 842 842 842 842
757 758 755 756 772 768 764 765 750 757 767 762 770 762 754 757 755 756 751 749 746 747 751 756 767 760 761 773 771 778 782 778 778 779 784 788 790 795 797 800 802 804 807 807 808 810 812 813 815 817 818 820 821 822 822 824 825 826 827 828 829 830 831 832 833 834 835 836 837 838 839 841 841 841 841 841 841 841 841 841 841 841 841 842 842 842 842 843 843 842 842 842 842 842 842 842 842
755 754 752 755 762 757 761 760 750 762 759 747 762 760 749 752 752 754 752 749 746 747 750 753 763 765 772 772 768 776 776 777 780 780 785 788 792 795 797 799 802 804 806 808 809 810 812 815 816 818 820 821 821 822 823 824 825 827 828 829 830 831 832 833 834 835 836 837 838 839 840 841 842 842 842 842 842 842 842 842 842 842 842 842 842 843 843 843 843 843 843 843 843 842 842 842 842
753 754 754 759 757 756 766 760 754 762 753 744 753 755 750 749 749 752 754 755 753 750 750 753 756 767 780 775 774 776 773 776 777 782 787 789 793 795 798 800 802 805 806 809 811 812 813 815 817 819 820 821 822 823 824 825 826 828 829 830 831 832 833 834 835 836 837 838 839 841 841 842 842 842 843 842 842 842 842 842 842 842 843 843 843 843 843 843 843 843 843 843 843 843 843 842 842
753 757 755 765 767 757 759 755 756 758 752 746 747 750 749 748 747 751 756 757 759 755 754 755 754 772 782 774 783 781 775 779 778 785 788 790 794 795 798 800 802 805 807 809 810 812 814 816 818 820 821 822 823 824 825 826 828 829 830 831 832 833 833 835 836 837 838 839 841 841 842 843 843 843 843 843 843 843 842 843 843 843 843 843 843 843 844 843 844 844 844 844 843 843 843 842 842
750 757 758 768 768 752 752 756 756 753 751 749 748 750 747 747 746 750 756 755 756 756 757 755 756 778 785 779 788 782 777 783 783 787 789 792 795 796 799 799 803 805 807 809 811 813 814 817 819 820 822 823 824 825 826 827 829 829 831 831 832 834 834 836 837 838 839 840 841 842 843 843 843 843 843 843 843 843 843 843 843 843 843 843 844 844 844 844 844 844 844 844 843 843 843 842 842
750 758 759 762 759 754 759 758 756 754 751 749 749 749 747 747 747 750 756 758 757 757 756 751 759 777 783 786 789 782 782 785 785 789 790 793 795 797 799 800 803 804 807 809 812 814 815 818 819 821 823 824 825 826 827 828 829 830 831 832 834 835 836 837 838 839 840 841 842 842 843 843 843 843 844 843 843 843 843 843 843 844 844 844 844 844 844 844 844 844 844 844 843 843 842 842 841
762 762 754 756 760 764 766 760 758 756 750 748 750 747 745 746 749 753 755 759 757 759 759 755 766 774 779 788 787 783 784 785 786 789 791 794 796 798 800 802 804 805 808 809 812 814 816 818 820 822 823 825 826 827 828 829 830 831 832 833 835 836 836 838 838 840 840 841 842 842 843 843 844 843 844 843 843 844 843 844 844 844 844 844 844 845 845 844 844 844 844 843 843 843 842 842 841
770 770 757 759 764 764 760 759 759 755 750 751 754 747 742 744 751 756 757 761 759 762 761 759 765 768 782 792 786 783 783 786 787 789 793 794 796 798 800 803 805 806 809 810 813 815 817 819 820 822 823 825 826 828 829 830 832 832 834 835 835 836 837 838 839 840 841 842 842 843 843 843 844 843 843 843 844 844 844 844 844 845 844 845 845 845 845 845 845 844 844 844 843 843 842 842 841
765 767 762 761 757 757 757 758 757 755 755 753 754 747 742 747 752 755 758 761 760 765 763 756 757 763 782 789 783 783 783 786 788 791 793 794 797 799 802 803 805 808 810 812 814 816 818 820 821 823 824 826 827 829 830 831 833 833 834 835 836 837 837 839 839 840 841 842 842 843 843 843 843 843 843 843 844 844 844 845 845 845 845 845 845 845 845 845 845 844 844 844 843 843 842 842 841
759 757 758 762 754 754 756 758 756 758 762 753 750 746 743 748 748 749 755 763 763 761 759 750 751 766 783 787 788 784 782 786 788 792 792 795 798 799 802 804 806 809 811 813 815 817 819 821 823 824 825 827 828 829 831 832 833 834 835 835 836 837 838 839 839 841 841 842 842 843 843 843 843 843 844 844 844 844 844 845 845 845 845 845 845 845 845 845 845 844 844 844 843 842 842 842 841
750 752 758 764 757 757 758 756 755 760 763 751 747 746 746 747 744 748 751 761 763 752 752 750 751 769 781 785 790 781 780 786 787 791 793 796 798 800 803 804 807 809 812 814 815 818 820 822 823 825 826 827 829 830 831 832 833 834 835 836 836 837 838 839 840 841 841 842 842 842 843 843 843 843 844 844 844 844 844 845 845 845 845 845 845 845 845 845 845 844 844 843 843 842 842 841 841
735 742 762 770 760 760 758 753 756 763 760 748 745 744 751 751 742 749 746 748 759 751 753 758 754 763 771 774 779 775 779 786 787 791 793 796 799 801 803 805 808 809 813 815 816 818 819 821 822 824 826 827 829 830 831 832 833 834 835 836 836 838 838 839 840 840 841 841 842 842 843 843 843 843 843 844 844 844 844 844 845 845 845 845 845 845 844 844 844 844 843 843 842 842 841 841 841
730 743 768 780 767 759 755 752 758 761 755 748 746 743 754 758 745 746 742 742 758 758 756 759 755 757 760 764 769 773 780 785 787 791 793 797 799 801 804 805 808 809 813 815 816 818 819 821 822 823 825 827 828 829 831 831 833 834 835 836 836 838 838 839 839 840 841 841 842 842 842 843 843 844 844 844 844 844 844 844 845 845 845 845 845 844 844 844 844 843 843 842 842 841 841 841 840
740 753 773 790 772 751 748 746 746 747 750 750 747 743 751 760 753 748 748 752 758 760 760 759 758 756 757 762 769 775 781 784 787 790 793 796 797 799 802 804 807 809 813 815 816 818 819 821 822 823 825 826 827 829 830 831 832 833 834 835 836 837 837 839 839 839 840 840 841 841 842 843 843 844 844 844 844 844 844 844 845 845 845 845 844 844 844 844 843 843 842 842 841 841 841 840 840
747 752 769 785 762 740 737 735 736 740 746 747 744 742 746 754 753 749 756 762 761 765 767 763 765 764 762 765 771 777 780 784 787 789 792 794 795 798 800 803 806 808 811 814 816 818 819 820 822 823 824 825 827 828 830 831 832 833 834 835 835 836 837 838 838 839 840 840 841 841 842 843 843 844 844 844 844 844 844 844 845 845 845 845 845 844 844 844 843 842 842 842 841 841 841 840 840
742 749 772 776 750 736 732 730 734 734 736 742 745 742 744 747 746 749 756 763 763 767 769 767 772 771 769 769 771 777 780 784 786 788 791 793 795 796 799 802 804 807 810 812 814 817 818 820 821 822 824 825 826 828 829 830 831 832 833 834 835 836 836 837 838 839 839 840 840 841 842 842 843 843 844 844 844 844 844 844 844 844 845 845 845 844 844 844 843 842 841 842 841 840 840 840 840
737 742 766 767 746 739 733 729 729 728 731 738 743 744 747 744 743 749 752 763 767 763 761 763 769 770 770 771 771 775 779 783 785 787 790 792 794 796 798 801 803 806 808 811 814 816 817 819 820 822 823 824 826 828 829 830 830 831 832 833 835 835 836 837 837 838 838 839 840 841 841 842 843 843 843 843 844 844 844 844 844 844 845 844 844 844 844 844 842 842 841 841 841 840 840 840 840
738 736 743 749 742 740 732 725 726 727 729 735 743 746 746 742 745 749 751 763 762 752 752 754 760 764 767 770 771 774 777 781 784 786 788 791 794 795 798 800 802 805 807 810 812 814 816 818 819 821 823 824 825 827 828 830 830 831 831 832 834 834 835 836 837 837 838 839 839 840 841 841 842 842 843 843 843 844 844 844 843 844 844 844 844 844 844 843 842 842 841 841 841 841 840 840 840
742 738 730 732 731 734 730 724 726 727 731 738 742 740 739 746 751 748 749 756 747 739 744 747 753 758 762 767 770 773 776 779 781 784 786 789 792 794 796 799 801 804 806 808 810 813 815 817 819 820 822 823 825 826 827 828 829 830 831 832 833 834 835 835 836 837 837 838 839 840 840 840 841 841 842 842 843 843 843 844 844 843 843 844 844 844 843 842 842 842 841 841 841 840 840 840 839
738 741 730 727 726 728 727 723 724 725 731 733 733 736 741 751 752 747 749 749 740 736 739 744 750 755 760 766 769 772 774 777 779 782 785 787 791 793 794 797 800 803 805 807 809 812 814 816 818 819 821 823 824 825 826 827 828 829 830 832 832 833 834 835 835 836 837 838 838 839 839 840 840 840 841 842 842 842 843 843 844 843 843 844 843 843 842 842 841 841 841 840 840 840 840 839 839
734 738 730 725 725 723 721 721 722 724 727 726 730 740 743 744 745 748 749 746 742 739 740 745 750 756 761 765 768 771 773 776 777 780 784 786 789 791 793 796 799 802 804 806 809 811 813 815 817 818 820 822 823 824 826 827 828 829 830 831 832 833 833 834 835 835 836 837 838 838 839 839 839 839 840 841 841 842 842 843 843 843 843 842 842 842 842 841 841 841 840 839 839 839 839 839 838
727 728 726 724 725 721 719 721 721 723 724 725 735 743 741 736 741 751 746 742 744 741 743 748 752 758 762 765 767 769 773 774 775 779 781 785 788 789 791 794 797 801 804 806 808 810 812 814 816 817 819 821 822 823 825 826 827 828 829 830 831 832 833 833 834 835 835 836 837 837 838 839 839 839 839 840 841 841 842 842 842 843 843 842 842 842 842 841 840 840 839 838 838 838 838 838 838
716 720 723 722 724 719 718 722 720 721 722 725 737 745 740 734 744 756 745 738 743 744 749 751 754 760 761 763 765 767 771 772 774 777 780 783 786 788 790 793 796 799 802 805 806 808 810 812 814 816 818 820 821 822 824 825 826 827 828 829 830 831 832 832 833 834 834 835 835 836 837 838 839 839 839 840 841 841 842 842 841 843 843 842 843 842 842 841 840 839 838 838 837 837 838 838 838
715 722 727 725 724 722 720 723 721 721 725 724 732 743 740 739 748 751 741 738 743 747 753 754 756 759 760 762 764 767 770 771 774 775 778 781 784 787 789 791 794 797 800 803 805 807 809 811 813 815 817 818 820 821 823 824 825 826 827 828 829 830 831 832 832 833 833 834 835 835 836 837 838 839 839 840 840 841 841 841 841 842 842 842 843 842 841 840 839 838 838 837 837 837 838 838 837
720 723 735 733 726 728 724 721 721 723 728 721 728 750 751 748 750 740 734 739 742 747 753 755 758 759 760 761 763 767 768 769 772 774 776 780 783 786 788 790 793 795 798 801 803 805 807 809 811 813 815 817 819 820 821 823 824 825 827 827 828 829 830 831 832 832 833 834 834 835 836 836 837 838 838 839 840 840 840 840 840 840 841 841 841 840 840 839 839 838 837 837 836 837 837 837 837
725 726 736 738 736 736 723 719 722 723 726 718 732 766 766 751 746 734 731 739 743 750 753 755 758 758 760 761 763 767 767 768 770 772 775 777 781 784 786 789 791 794 796 799 801 803 805 807 809 812 814 816 817 819 821 822 823 824 825 826 828 829 829 830 831 832 832 833 833 834 834 835 836 837 837 838 838 839 839 839 840 840 839 839 840 839 838 837 837 837 836 837 837 837 837 836 836
729 734 736 740 750 743 722 719 726 730 728 717 735 771 766 748 742 733 731 737 743 751 753 754 756 757 760 760 763 766 766 767 769 771 773 775 779 781 784 787 789 792 794 797 800 802 804 805 808 810 812 814 816 818 819 821 822 823 825 826 827 828 828 829 830 831 831 832 832 833 833 834 834 835 836 837 837 838 838 838 839 838 838 838 838 838 837 836 836 836 836 837 837 837 836 836 836
731 746 749 742 748 743 726 720 724 734 733 721 739 766 756 741 737 730 730 736 741 749 752 752 754 755 758 760 761 764 765 766 767 769 771 774 777 779 782 784 787 790 792 795 798 800 803 804 807 808 810 813 814 817 818 820 821 822 824 825 826 827 827 828 829 829 830 831 831 831 832 832 833 834 834 835 836 837 837 837 838 837 836 836 837 836 836 836 836 836 837 837 837 837 836 835 835
734 745 752 743 745 746 736 727 718 725 733 730 740 756 750 738 733 728 730 735 739 747 750 750 753 753 755 759 759 762 764 765 766 767 769 772 775 777 780 782 785 788 790 794 796 799 801 803 805 807 809 811 813 815 817 819 820 821 823 824 825 825 826 827 827 828 829 829 830 830 830 831 832 832 833 834 835 836 836 836 836 836 835 835 835 835 835 836 837 837 837 837 837 837 836 835 835
740 740 745 740 740 743 743 738 722 718 732 739 740 747 746 737 732 731 732 734 738 744 747 748 750 752 753 756 757 759 762 764 765 764 766 770 772 775 778 780 783 786 789 792 794 797 799 801 804 805 807 809 812 814 815 817 819 820 821 822 823 824 824 825 826 826 827 827 828 829 828 829 831 831 832 833 833 834 834 834 834 834 834 834 835 835 836 836 837 837 837 837 837 837 837 836 836
741 740 742 742 738 736 739 739 728 722 733 742 745 749 746 735 732 734 732 732 737 741 743 744 746 749 752 754 756 756 759 761 761 761 764 767 770 773 776 779 782 784 787 790 793 795 797 800 802 804 806 808 810 812 814 816 817 819 820 821 822 822 823 824 824 825 825 826 826 827 827 828 829 830 831 831 832 832 833 833 833 833 833 834 835 835 835 836 836 837 837 837 837 837 837 837 837
731 729 734 741 739 734 729 726 721 722 736 743 744 749 746 739 736 736 732 730 735 739 738 741 744 746 749 752 754 754 756 757 756 758 762 764 768 771 774 777 779 782 785 788 791 793 795 797 799 802 804 806 808 810 812 814 815 817 818 819 819 820 821 822 822 823 823 824 825 826 827 827 828 829 829 830 831 831 831 832 832 832 833 834 835 835 835 835 836 837 837 837 838 837 837 837 837
721 723 727 732 735 731 720 716 714 716 736 744 738 742 743 737 735 733 732 731 735 738 739 740 742 744 747 749 751 751 753 752 751 756 759 761 765 768 772 775 777 780 782 785 788 790 793 795 797 799 801 804 806 808 810 811 813 814 815 816 817 818 819 820 821 821 822 823 824 825 825 826 827 828 829 829 830 830 830 831 831 832 833 834 835 835 835 835 836 837 837 837 838 837 837 837 837
719 721 724 728 731 725 710 708 710 712 733 742 735 740 742 735 732 729 729 734 735 735 737 740 740 741 742 745 748 748 749 747 748 753 756 758 762 765 769 772 774 777 779 782 785 788 790 792 794 797 799 801 803 805 807 809 810 812 813 814 815 816 817 818 819 820 821 822 823 824 824 826 826 827 828 828 829 829 829 830 831 832 834 834 835 835 835 836 836 837 837 837 837 837 837 837 837
722 720 724 730 726 720 711 703 705 712 731 742 737 741 741 731 728 725 725 731 731 728 730 733 735 738 740 741 745 745 746 747 747 749 752 755 758 761 765 768 771 773 776 779 782 785 788 790 792 794 796 798 801 803 804 806 808 809 811 812 813 814 816 817 818 819 820 821 821 822 823 824 825 826 826 827 827 828 829 831 831 833 834 834 835 835 836 836 836 837 837 837 837 837 837 837 838
723 721 726 731 719 720 724 713 709 715 727 737 738 742 739 730 728 725 720 722 724 724 724 725 727 733 735 735 737 741 744 746 746 747 748 751 754 757 760 764 767 770 773 776 779 782 784 786 789 791 794 796 798 800 802 804 806 808 810 811 812 813 815 816 816 817 818 819 820 821 822 823 824 825 825 826 827 828 829 831 832 833 833 834 835 835 836 836 837 837 837 838 838 837 835 835 837
723 717 721 725 715 714 719 716 718 723 728 731 739 752 746 733 734 730 718 717 719 721 723 724 723 724 728 729 731 734 737 740 743 744 745 747 750 752 756 760 763 766 768 771 774 777 780 783 786 788 791 793 795 798 800 802 804 806 808 810 811 812 814 814 815 815 816 817 819 819 821 821 822 823 824 825 826 828 829 830 831 832 833 834 835 835 836 836 837 837 838 838 839 838 835 834 836
726 716 712 713 711 710 710 711 722 739 746 733 739 770 765 737 734 733 722 720 720 719 723 726 725 722 724 727 728 728 731 733 737 739 741 743 745 749 753 756 759 761 764 768 771 774 777 779 783 786 788 791 793 795 797 800 802 804 806 807 809 810 811 812 812 813 815 816 817 818 819 820 821 823 823 825 826 827 829 830 831 832 833 834 835 835 836 836 836 837 838 838 839 839 838 836 835
729 712 703 707 708 710 711 709 721 745 752 731 730 765 772 747 736 731 723 723 721 719 722 723 723 723 723 724 724 724 725 728 731 734 736 738 741 744 748 752 755 758 760 764 768 770 774 777 779 782 785 788 790 792 795 797 800 801 803 805 806 808 809 810 811 812 813 814 815 817 818 819 820 822 823 824 825 827 828 829 830 831 832 833 834 835 835 835 835 836 837 838 838 839 839 838 836
724 701 696 707 710 713 712 709 720 731 735 732 729 744 764 760 741 723 719 724 723 720 721 720 719 720 719 719 719 718 719 721 725 730 732 734 736 739 743 748 751 754 757 761 764 767 770 773 776 779 782 785 787 790 792 795 797 799 801 802 804 805 806 808 809 810 812 813 814 815 816 818 820 821 822 823 824 826 827 828 829 830 831 832 833 834 834 834 834 836 837 838 838 839 839 838 837
712 693 692 700 705 711 708 709 719 720 732 750 739 734 762 768 740 718 715 722 726 722 718 717 716 715 716 718 717 714 713 715 717 723 727 728 731 735 739 744 748 751 754 758 761 764 767 770 773 776 779 782 784 787 789 792 794 796 798 800 802 803 805 806 807 809 810 811 813 814 815 817 819 820 821 822 824 825 826 827 828 829 831 831 832 833 833 834 834 836 837 837 838 838 839 839 838
701 692 694 695 698 705 707 711 717 720 738 755 739 730 757 767 742 724 721 722 724 719 712 710 709 710 714 718 719 715 712 711 712 715 719 722 725 730 736 740 745 748 751 755 758 761 764 767 770 773 775 778 781 784 787 789 791 794 796 797 799 801 803 804 806 807 808 810 812 813 815 816 818 819 820 821 822 823 825 826 827 829 830 831 832 832 833 834 835 836 836 837 837 838 838 838 838
696 698 704 703 698 700 707 711 714 730 745 741 726 720 741 759 742 722 719 716 711 711 711 708 704 705 710 713 716 718 715 711 710 711 713 718 722 727 732 736 741 745 748 751 755 757 760 763 766 769 772 775 778 781 784 786 789 791 793 795 797 799 801 802 804 805 807 809 810 812 814 815 816 818 819 820 821 822 824 825 826 828 829 830 831 832 832 833 834 835 836 836 837 837 837 838 838
697 705 713 717 715 715 722 721 723 746 751 730 714 709 726 751 738 712 705 699 695 702 708 707 702 701 706 707 710 713 713 711 711 711 711 715 720 723 727 732 736 741 744 747 750 753 756 760 763 766 769 771 775 778 780 783 786 788 789 792 794 796 798 800 802 804 805 807 809 810 812 813 815 816 817 818 820 821 822 824 825 827 828 829 830 831 832 832 832 833 835 836 836 837 837 837 838
701 711 719 729 737 743 750 744 737 747 743 719 708 709 720 731 720 703 698 692 689 693 696 696 693 693 697 698 700 704 706 709 710 709 709 712 716 718 721 726 731 735 739 742 745 748 752 755 758 762 764 768 771 774 777 780 782 784 786 789 791 793 796 798 800 802 804 805 807 809 810 812 813 814 816 817 818 820 821 823 825 826 827 829 830 831 831 832 832 833 834 835 835 836 837 837 837
706 712 720 729 741 758 766 754 743 743 734 713 705 712 721 720 707 694 690 686 682 681 683 685 683 684 684 683 691 699 702 705 706 703 704 706 709 712 716 721 726 730 734 737 741 744 748 751 755 758 761 764 767 770 773 776 778 781 783 786 788 791 793 795 798 800 802 803 805 807 808 810 811 812 814 816 817 819 820 822 824 825 827 828 829 830 831 831 832 833 833 834 834 835 835 836 836
700 697 705 717 728 746 753 746 745 745 732 717 712 718 726 723 704 682 676 675 674 675 676 676 676 674 672 673 684 695 698 702 704 700 699 701 702 706 710 715 720 724 729 733 737 740 744 748 751 754 757 760 763 766 769 772 774 777 780 783 785 788 790 793 795 797 799 801 803 804 806 807 809 810 812 814 815 817 819 821 822 824 825 826 827 828 829 830 831 832 832 833 833 834 834 834 834
696 690 701 710 709 719 727 724 725 729 730 723 715 712 707 699 684 670 671 673 672 675 675 675 675 669 668 675 682 689 693 694 696 695 695 696 698 701 706 710 715 719 724 728 732 736 740 743 747 750 753 756 759 762 765 768 771 774 777 779 782 784 787 790 792 795 797 798 800 802 804 805 807 808 810 812 813 815 817 818 820 821 823 824 824 825 826 826 828 829 830 831 832 833 833 832 832
694 698 705 694 685 699 717 722 712 716 732 725 709 705 695 688 684 673 674 677 675 677 676 674 673 666 669 678 681 683 686 687 687 688 691 692 694 698 701 704 709 713 718 722 726 731 735 738 742 746 749 752 755 758 761 764 768 770 773 776 779 781 784 787 789 792 794 796 798 799 801 803 804 806 808 809 811 813 814 816 817 819 820 821 822 822 822 823 824 825 827 829 830 831 832 832 831
688 699 693 680 684 692 705 724 724 726 737 721 706 708 701 702 700 682 677 683 681 681 677 673 671 667 670 677 679 679 681 682 682 683 686 688 690 693 696 700 704 707 712 716 721 726 730 734 738 741 744 747 750 754 757 761 764 767 770 772 775 778 780 783 786 788 791 793 795 796 798 800 802 804 806 807 809 810 812 814 815 816 817 818 820 821 822 821 821 822 823 826 828 830 831 832 831
675 678 670 679 706 710 705 718 727 733 738 724 712 707 698 698 695 683 684 684 681 683 679 673 672 667 666 670 675 679 680 681 679 680 684 685 686 689 692 695 699 703 708 712 717 722 726 730 734 737 740 742 746 750 754 757 760 763 766 768 771 774 777 780 783 785 787 789 791 793 795 797 799 801 803 805 806 808 810 811 812 813 814 815 816 818 820 821 821 821 821 823 824 826 829 830 831
671 670 666 672 691 700 700 704 712 723 731 727 721 714 700 686 673 674 683 677 674 679 676 671 670 665 660 660 666 674 679 680 678 677 679 680 681 684 686 689 693 697 703 708 713 717 721 726 729 732 736 739 743 747 749 753 756 759 762 765 768 771 773 776 779 782 784 785 788 789 791 793 795 798 800 801 803 805 807 808 809 811 812 812 813 814 817 819 820 820 820 821 821 822 825 827 829
681 685 682 678 677 681 688 693 695 706 720 725 725 722 704 673 654 660 670 668 668 669 666 666 665 660 655 652 657 666 672 676 675 674 674 675 676 678 681 686 688 693 699 702 707 712 715 720 724 727 731 735 739 742 745 748 751 755 758 761 764 767 770 773 775 778 780 782 784 786 787 789 792 794 795 796 799 800 802 804 806 807 809 811 811 812 814 816 818 818 818 819 819 819 822 824 827
674 682 683 681 678 682 699 706 689 684 703 712 714 719 698 660 644 648 652 659 662 657 656 659 656 654 652 649 651 656 663 669 670 670 671 671 673 674 677 682 685 689 693 697 701 706 710 714 718 722 726 729 733 736 740 743 747 750 754 756 760 763 766 769 771 774 776 779 781 782 783 785 787 789 790 791 793 795 797 799 801 804 805 808 809 810 812 813 815 816 816 817 817 818 820 822 824